Dublin, GA

3:06 PM EDT on May 29, 2017 (GMT -0400)
Dublin

Weather History for KDBN - November, 2014

Change the Weather History Date:

Monday, November 17, 2014

  Actual Average Record
Temperature  
Mean Temperature 52 °F -  
Max Temperature 68 °F 67 °F 88 °F (1958)
Min Temperature 35 °F 40 °F 22 °F (1933)
Degree Days  
Heating Degree Days 14    
Growing Degree Days 2 (Base 50)    
Moisture  
Dew Point 53 °F    
Average Humidity 91    
Maximum Humidity 100    
Minimum Humidity 70    
Precipitation  
Precipitation 0.00 in - - ()
Sea Level Pressure  
Sea Level Pressure 29.91 in    
Wind  
Wind Speed 8 mph (WSW)    
Max Wind Speed 17 mph    
Max Gust Speed 28 mph    
Visibility 9 miles    
Events Rain , Thunderstorm    
Averages and records for this station are not official NWS values.
T = Trace of Precipitation, MM = Missing Value Source: NWS Daily Summary

Daily Weather History Graph

Daily Weather History Graph

Search for Another Location

Airport or City:

Trip Planner

Search our weather history database for the weather conditions in past years. The results will help you decide how hot, cold, wet, or windy it might be!

Date:

Astronomy

Nov. 17, 2014 Rise Set
Actual Time 7:05 AM EST 5:28 PM EST
Civil Twilight 6:38 AM EST 5:54 PM EST
Nautical Twilight 6:08 AM EST 6:24 PM EST
Astronomical Twilight 5:39 AM EST 6:54 PM EST
Moon 2:20 AM EST (11/17) 2:38 PM EST (11/17)
Length of Visible Light 11h 15m
Length of Day
10h 22m
Waning Crescent, 23% of the Moon is Illuminated
Nov 17
Waning Crescent
Nov 22
New
Nov 29
First Quarter
Dec 6
Full
Dec 14
Last Quarter

Hourly Weather History & Observations

Time (EST) Temp. Windchill Dew Point Humidity Pressure Visibility Wind Dir Wind Speed Gust Speed Precip Events Conditions
12:15 AM 57.2 °F - 51.8 °F 82% 30.01 in 10.0 mi Calm Calm - N/A   Overcast
12:35 AM 57.2 °F - 51.8 °F 82% 30.00 in 10.0 mi East 3.5 mph - N/A   Overcast
12:55 AM 57.2 °F - 53.6 °F 88% 29.99 in 10.0 mi ESE 4.6 mph - N/A   Overcast
1:15 AM 57.2 °F - 55.4 °F 94% 29.98 in 10.0 mi ESE 4.6 mph - N/A   Overcast
1:35 AM 57.2 °F - 57.2 °F 100% 29.97 in 10.0 mi SE 4.6 mph - N/A   Overcast
1:55 AM 59.0 °F - 59.0 °F 100% 29.96 in 10.0 mi SSE 8.1 mph - N/A   Overcast
2:15 AM 59.0 °F - 59.0 °F 100% 29.96 in 10.0 mi SSE 8.1 mph - N/A   Overcast
2:35 AM 59.0 °F - 59.0 °F 100% 29.95 in 10.0 mi SSE 8.1 mph - N/A   Overcast
2:55 AM 59.0 °F - 59.0 °F 100% 29.94 in 10.0 mi SSE 5.8 mph - N/A   Overcast
3:15 AM 59.0 °F - 59.0 °F 100% 29.92 in 10.0 mi SE 5.8 mph - N/A   Overcast
3:35 AM 59.0 °F - 59.0 °F 100% 29.91 in 10.0 mi SSE 5.8 mph - N/A   Mostly Cloudy
3:55 AM 59.0 °F - 59.0 °F 100% 29.91 in 10.0 mi SSE 3.5 mph - N/A   Overcast
4:15 AM 60.8 °F - 60.8 °F 100% 29.90 in 10.0 mi SSE 4.6 mph - N/A   Overcast
4:35 AM 60.8 °F - 60.8 °F 100% 29.89 in 10.0 mi South 6.9 mph - N/A   Overcast
4:55 AM 62.6 °F - 62.6 °F 100% 29.88 in 10.0 mi South 8.1 mph - N/A   Overcast
5:15 AM 62.6 °F - 62.6 °F 100% 29.88 in 7.0 mi SSE 8.1 mph - N/A   Overcast
5:35 AM 62.6 °F - 62.6 °F 100% 29.87 in 7.0 mi SSE 9.2 mph - N/A   Overcast
5:55 AM 62.6 °F - 62.6 °F 100% 29.87 in 7.0 mi South 9.2 mph - N/A   Overcast
6:15 AM 62.6 °F - 62.6 °F 100% 29.86 in 7.0 mi South 9.2 mph - N/A   Overcast
6:35 AM 62.6 °F - 62.6 °F 100% 29.85 in 7.0 mi South 6.9 mph - N/A   Overcast
6:55 AM 62.6 °F - 62.6 °F 100% 29.84 in 7.0 mi South 10.4 mph - N/A   Overcast
7:15 AM 62.6 °F - 62.6 °F 100% 29.83 in 10.0 mi South 9.2 mph - N/A Thunderstorm Thunderstorm
7:35 AM 62.6 °F - 62.6 °F 100% 29.83 in 10.0 mi South 10.4 mph - N/A Thunderstorm Overcast
7:55 AM 62.6 °F - 62.6 °F 100% 29.82 in 10.0 mi South 10.4 mph 16.1 mph N/A   Overcast
8:15 AM 62.6 °F - 62.6 °F 100% 29.83 in 5.0 mi SSW 12.7 mph 19.6 mph N/A Rain , Thunderstorm Rain
8:35 AM 62.6 °F - 62.6 °F 100% 29.83 in 10.0 mi SSW 10.4 mph 18.4 mph N/A   Overcast
8:55 AM 64.4 °F - 64.4 °F 100% 29.83 in 10.0 mi SSW 10.4 mph - N/A   Mostly Cloudy
9:15 AM 64.4 °F - 64.4 °F 100% 29.83 in 10.0 mi SSW 15.0 mph 18.4 mph N/A   Mostly Cloudy
9:35 AM 66.2 °F - 66.2 °F 100% 29.80 in 10.0 mi SSW 13.8 mph 20.7 mph N/A   Mostly Cloudy
9:55 AM 68.0 °F - 68.0 °F 100% 29.80 in 10.0 mi SSW 12.7 mph 23.0 mph N/A   Scattered Clouds
10:15 AM 68.0 °F - 68.0 °F 100% 29.80 in 10.0 mi SSW 17.3 mph 23.0 mph N/A Rain Light Rain
10:35 AM 66.2 °F - 66.2 °F 100% 29.84 in 2.0 mi WSW 15.0 mph 21.9 mph N/A Rain Heavy Rain
10:55 AM 64.4 °F - 64.4 °F 100% 29.81 in 2.5 mi WSW 11.5 mph 27.6 mph N/A Rain Rain
11:15 AM 64.4 °F - 64.4 °F 100% 29.80 in 5.0 mi SW 11.5 mph 18.4 mph N/A Rain , Thunderstorm Thunderstorms and Rain
11:35 AM 64.4 °F - 64.4 °F 100% 29.80 in 10.0 mi WSW 8.1 mph 17.3 mph N/A Rain , Thunderstorm Thunderstorms and Rain
11:55 AM 64.4 °F - 64.4 °F 100% 29.80 in 7.0 mi WSW 6.9 mph - N/A Rain , Thunderstorm Light Thunderstorms and Rain
12:15 PM 64.4 °F - 64.4 °F 100% 29.79 in 4.0 mi WSW 9.2 mph - N/A Rain Rain
12:35 PM 66.2 °F - 66.2 °F 100% 29.78 in 10.0 mi WSW 8.1 mph - N/A   Overcast
12:55 PM 68.0 °F - 68.0 °F 100% 29.77 in 10.0 mi West 9.2 mph - N/A   Overcast
1:15 PM 66.2 °F - 66.2 °F 100% 29.78 in 10.0 mi WSW 9.2 mph - N/A Rain Rain
1:35 PM 66.2 °F - 66.2 °F 100% 29.78 in 10.0 mi West 9.2 mph 16.1 mph N/A   Overcast
1:55 PM 68.0 °F - 66.2 °F 94% 29.77 in 10.0 mi West 12.7 mph 20.7 mph N/A   Mostly Cloudy
2:15 PM 66.2 °F - 64.4 °F 94% 29.77 in 10.0 mi West 9.2 mph 19.6 mph N/A   Overcast
2:35 PM 64.4 °F - 62.6 °F 94% 29.80 in 10.0 mi WNW 12.7 mph 26.5 mph N/A   Overcast
2:55 PM 60.8 °F - 60.8 °F 100% 29.83 in 10.0 mi WNW 17.3 mph 23.0 mph N/A   Overcast
3:15 PM 59.0 °F - 55.4 °F 88% 29.85 in 10.0 mi WNW 10.4 mph 17.3 mph N/A   Overcast
3:35 PM 57.2 °F - 53.6 °F 88% 29.86 in 10.0 mi West 9.2 mph 16.1 mph N/A   Overcast
3:55 PM 57.2 °F - 51.8 °F 82% 29.87 in 10.0 mi WNW 12.7 mph 17.3 mph N/A   Mostly Cloudy
4:15 PM 55.4 °F - 48.2 °F 77% 29.87 in 10.0 mi NW 9.2 mph 21.9 mph N/A   Scattered Clouds
4:35 PM 55.4 °F - 46.4 °F 72% 29.89 in 10.0 mi WNW 15.0 mph 24.2 mph N/A   Scattered Clouds
4:55 PM 53.6 °F - 44.6 °F 72% 29.91 in 10.0 mi NW 12.7 mph 20.7 mph N/A   Scattered Clouds
5:15 PM 51.8 °F - 44.6 °F 76% 29.92 in 10.0 mi NW 10.4 mph 23.0 mph N/A   Mostly Cloudy
5:35 PM 50.0 °F - 44.6 °F 82% 29.93 in 10.0 mi NW 11.5 mph 18.4 mph N/A   Overcast
5:55 PM 48.2 °F - 42.8 °F 82% 29.93 in 10.0 mi NW 15.0 mph 19.6 mph N/A   Overcast
6:15 PM 46.4 °F 41.9 °F 42.8 °F 87% 29.96 in 10.0 mi NW 9.2 mph 16.1 mph N/A   Overcast
6:35 PM 44.6 °F 38.8 °F 41.0 °F 87% 29.98 in 10.0 mi NNW 11.5 mph 16.1 mph N/A   Scattered Clouds
6:55 PM 44.6 °F 38.4 °F 37.4 °F 76% 29.99 in 10.0 mi NW 12.7 mph 17.3 mph N/A   Scattered Clouds
7:15 PM 42.8 °F 35.8 °F 35.6 °F 76% 30.00 in 10.0 mi NW 13.8 mph - N/A   Clear
7:35 PM 42.8 °F 36.6 °F 35.6 °F 76% 30.02 in 10.0 mi NW 11.5 mph 18.4 mph N/A   Clear
7:55 PM 42.8 °F 36.6 °F 33.8 °F 70% 30.03 in 10.0 mi NW 11.5 mph 16.1 mph N/A   Clear
8:15 PM 41.0 °F 34.3 °F 33.8 °F 76% 30.04 in 10.0 mi NW 11.5 mph - N/A   Clear
8:35 PM 41.0 °F 34.7 °F 33.8 °F 76% 30.05 in 10.0 mi NW 10.4 mph - N/A   Clear
8:55 PM 41.0 °F 36.4 °F 33.8 °F 76% 30.06 in 10.0 mi NW 6.9 mph - N/A   Scattered Clouds
9:15 PM 39.2 °F 35.0 °F 33.8 °F 81% 30.06 in 10.0 mi NW 5.8 mph - N/A   Scattered Clouds
9:35 PM 39.2 °F 33.0 °F 32.0 °F 75% 30.08 in 10.0 mi WNW 9.2 mph 17.3 mph N/A   Clear
9:55 PM 37.4 °F 31.4 °F 32.0 °F 81% 30.09 in 10.0 mi NW 8.1 mph - N/A   Clear
10:15 PM 37.4 °F 30.3 °F 28.4 °F 70% 30.11 in 10.0 mi NW 10.4 mph 16.1 mph N/A   Clear
10:35 PM 37.4 °F 31.4 °F 30.2 °F 75% 30.11 in 10.0 mi NW 8.1 mph - N/A   Clear
10:55 PM 35.6 °F 29.2 °F 30.2 °F 81% 30.12 in 10.0 mi NW 8.1 mph - N/A   Clear
11:15 PM 35.6 °F 30.7 °F 30.2 °F 81% 30.13 in 10.0 mi WNW 5.8 mph - N/A   Clear
11:35 PM 35.6 °F 29.2 °F 30.2 °F 81% 30.14 in 10.0 mi WNW 8.1 mph - N/A   Clear
11:55 PM 35.6 °F 29.2 °F 30.2 °F 81% 30.14 in 10.0 mi NW 8.1 mph - N/A   Clear